Theta_e
317 318 319 316 316 327 334 336 340 337 333 337 334 334 332 331 331 328 325 325 324 323 323 324 325 325 322 322 321 318 314 312 311 312 311 310 309 309 310 310 310 310 311 312
317 319 320 324 332 336 337 338 338 333 331 333 334 334 334 334 333 328 328 327 325 324 324 325 320 319 320 319 315 313 312 311 311 310 309 308 308 308 309 308 307 307 308 310
318 320 321 327 329 332 333 337 336 335 333 332 335 337 337 335 333 332 331 327 324 324 325 320 317 318 315 314 313 311 311 310 309 309 308 308 307 306 306 306 305 305 306 307
326 325 324 324 325 323 326 332 336 336 335 340 334 340 336 332 333 334 332 328 325 324 322 316 313 316 313 311 311 310 309 309 309 309 308 307 306 305 305 306 305 305 305 306
329 327 327 326 327 323 330 333 335 333 333 334 336 338 337 332 336 334 331 328 324 322 319 312 312 312 311 310 308 308 308 308 307 307 307 305 305 305 305 305 304 304 304 308
328 328 328 325 322 328 331 327 326 319 327 335 334 332 332 335 333 332 329 326 324 321 317 311 310 309 308 308 307 308 307 308 308 307 307 306 306 306 305 304 305 305 307 308
328 328 328 327 327 328 321 319 325 324 330 335 331 330 328 328 330 330 328 325 322 316 310 309 308 308 308 307 307 307 308 308 308 306 306 306 306 306 305 305 306 306 307 308
329 330 327 326 326 325 322 320 324 329 328 334 331 335 331 330 328 326 324 320 312 309 307 307 307 307 307 307 307 308 308 308 308 307 307 306 306 306 305 306 306 307 307 308
329 330 327 323 322 323 324 324 320 328 329 331 332 334 333 329 327 324 321 316 310 308 307 306 307 306 306 307 307 308 308 308 308 307 307 307 306 306 306 306 306 306 307 308
330 328 327 327 322 320 322 320 323 322 334 335 332 331 330 333 328 324 321 315 309 306 305 306 306 306 307 307 308 308 308 308 308 308 308 307 307 306 307 306 306 306 307 308
323 323 325 324 325 323 321 321 321 322 324 330 331 329 322 329 327 325 320 313 308 306 306 305 305 307 307 307 308 308 308 308 308 308 308 308 308 308 306 306 307 307 307 308
326 323 328 327 323 320 320 321 318 324 329 324 323 324 319 323 325 323 318 310 308 306 306 306 305 306 307 307 308 308 308 308 308 309 309 309 308 309 309 308 306 307 307 307
324 320 326 324 322 320 321 320 320 319 320 325 326 323 320 320 316 312 309 309 308 307 306 306 305 306 306 307 308 308 307 308 309 310 309 309 309 309 309 308 307 306 307 307
325 322 322 325 324 321 325 324 323 320 322 326 326 325 323 320 314 309 309 308 309 308 307 306 305 305 306 307 308 309 309 309 310 310 309 310 310 309 309 308 308 307 307 307
321 324 322 320 321 322 322 322 322 325 325 324 325 326 320 318 313 309 309 309 309 308 307 306 304 306 306 307 309 309 309 309 310 310 310 309 309 310 310 310 309 310 309 309
320 325 323 326 325 325 324 322 321 321 319 319 319 321 313 311 309 309 310 310 310 309 308 306 306 307 307 307 308 309 310 309 310 310 310 310 311 311 311 311 311 310 309 308
324 325 326 328 329 328 329 327 321 321 320 318 320 318 313 313 311 309 309 309 310 309 307 306 307 307 307 308 308 309 310 309 310 311 311 311 311 312 312 311 311 309 308 308
329 331 329 333 330 331 328 324 321 321 321 319 319 317 314 312 310 309 308 309 309 308 307 307 308 307 308 309 308 310 309 309 310 311 311 312 311 309 311 310 310 309 308 308
325 325 329 332 333 330 328 325 325 324 321 318 318 314 312 310 310 310 308 307 307 307 308 308 308 308 308 309 309 310 309 310 311 312 312 312 310 308 307 310 310 310 310 309
324 326 330 332 329 332 325 323 321 319 322 317 316 314 312 311 313 311 308 308 309 309 308 308 308 308 308 309 310 309 309 310 311 312 312 311 310 310 306 306 310 311 311 309
326 329 332 330 331 327 322 320 317 317 318 315 314 313 310 311 310 308 308 309 309 309 308 309 308 308 309 309 310 310 310 311 312 312 311 311 311 310 309 301 306 309 311 311
327 327 327 325 325 325 319 317 315 316 315 313 314 313 311 309 309 308 308 309 309 309 309 309 308 308 309 310 310 309 311 311 312 311 311 311 311 312 312 310 302 305 308 309
326 324 325 322 321 320 317 318 317 313 313 313 312 311 311 310 309 308 307 308 309 310 309 308 309 309 310 310 311 310 311 312 312 311 311 311 311 312 312 312 309 300 300 300
323 319 321 321 322 320 317 315 314 312 311 311 310 311 310 310 309 308 307 308 309 310 310 309 310 310 311 311 311 311 311 312 312 312 311 311 312 311 311 311 311 306 301 299
320 321 320 318 319 318 318 316 315 312 311 312 312 311 311 309 308 307 308 309 309 310 310 309 310 310 310 311 311 311 312 312 313 312 311 312 312 312 312 312 311 310 305 300
318 321 320 321 318 318 322 315 314 313 314 311 312 311 311 310 309 310 310 311 311 310 310 310 310 310 311 311 311 312 312 312 312 312 311 312 312 312 311 309 311 310 309 304
Wind_Speed
3 5 3 11 6 5 10 9 11 5 4 7 6 5 4 2 4 4 4 3 3 3 3 4 7 7 6 4 4 7 8 13 15 17 18 19 19 16 14 16 16 14 13 11
6 2 4 11 14 17 16 19 8 5 4 6 3 4 2 2 2 5 5 4 4 3 3 4 9 8 8 6 8 10 14 15 15 15 17 17 20 18 14 16 17 17 15 13
3 4 1 9 9 9 5 7 12 9 8 6 8 2 2 1 4 5 5 3 3 3 3 5 8 8 9 11 11 13 15 15 15 17 18 19 20 22 20 23 21 19 18 15
6 5 7 6 5 4 0 10 14 19 7 5 4 2 4 4 4 5 4 1 4 3 1 8 9 9 9 11 13 14 15 16 18 18 19 19 17 19 21 21 21 19 16 15
2 3 5 6 2 4 3 13 13 9 5 6 2 1 3 4 4 4 5 5 5 2 3 7 12 10 10 12 14 14 14 15 17 18 17 17 18 18 19 19 22 20 17 14
2 2 3 3 5 13 19 14 7 5 3 2 3 3 2 3 4 1 2 4 4 3 5 9 10 9 10 11 12 12 15 14 18 19 16 16 16 19 20 21 22 20 19 17
6 4 5 3 10 11 7 6 3 3 2 3 2 3 5 4 4 4 7 7 2 4 6 7 6 8 10 12 13 15 14 13 17 19 17 16 16 16 17 18 19 21 18 17
3 5 7 6 1 6 2 5 5 4 3 3 2 3 3 1 5 4 5 5 6 6 5 6 5 7 10 11 13 13 13 13 16 18 18 16 16 15 15 15 16 16 17 13
3 2 3 6 3 1 2 4 3 7 3 3 2 1 2 4 3 3 6 6 6 5 4 4 5 7 7 10 11 11 13 13 14 16 16 16 16 15 13 13 13 16 14 14
1 3 3 5 5 7 6 4 2 3 4 2 2 3 4 4 5 5 6 7 6 4 4 2 4 5 7 8 9 10 11 13 14 15 14 15 14 14 13 12 13 13 13 11
2 3 5 3 6 3 5 4 6 5 3 4 2 4 4 8 10 10 7 7 7 6 4 0 3 6 7 7 8 10 13 14 14 14 14 12 13 14 14 13 11 12 11 10
3 4 2 2 5 3 4 3 3 4 1 2 3 4 5 7 8 6 6 7 7 5 4 1 3 4 7 8 9 11 13 15 13 14 13 12 10 13 14 14 12 11 11 9
2 4 3 6 6 6 6 4 3 5 3 2 3 4 3 5 6 5 7 8 6 4 2 2 3 5 7 8 10 11 12 15 15 12 11 11 13 15 14 12 12 8 10 10
7 3 3 5 3 2 6 6 4 5 4 2 2 4 3 3 4 4 7 7 5 3 2 1 2 6 6 7 10 11 13 13 12 11 11 11 13 12 12 10 11 11 10 10
5 5 4 8 10 14 9 8 9 6 2 3 2 1 4 4 5 4 6 5 4 3 3 2 2 5 6 7 9 11 12 12 11 12 12 13 12 12 11 9 9 10 10 9
5 2 2 7 9 14 12 9 7 6 4 4 5 2 3 2 5 5 5 4 3 3 3 2 4 6 6 7 10 11 11 10 10 11 12 14 15 15 11 8 9 9 10 10
4 3 4 2 5 2 6 5 3 3 4 3 4 3 2 1 2 4 4 3 3 1 2 4 5 5 6 8 10 11 10 8 9 11 12 14 16 16 14 8 9 10 10 10
4 5 2 1 5 3 1 2 4 5 4 5 3 2 3 0 1 2 3 2 3 2 3 4 5 6 6 7 9 10 7 8 9 10 10 13 16 15 12 11 9 8 8 7
5 4 3 3 3 3 2 5 4 0 3 4 3 2 2 2 2 3 4 3 3 3 3 4 5 6 7 8 8 8 6 8 7 9 10 12 14 14 12 9 7 6 6 6
6 6 4 2 3 3 3 8 7 5 3 5 3 3 3 1 3 4 3 4 4 3 4 4 5 6 8 7 7 6 7 6 7 8 10 11 14 11 13 9 7 5 5 5
5 4 3 2 3 2 5 9 3 6 5 3 1 3 5 4 5 3 3 5 5 5 6 6 7 9 9 8 8 5 5 5 6 8 8 9 11 10 12 11 7 7 5 4
3 2 3 2 4 3 7 6 6 5 3 2 2 2 5 6 6 2 5 6 7 7 7 8 9 10 9 8 8 6 5 5 7 6 6 10 12 11 11 10 8 7 7 6
4 2 2 2 4 2 3 2 2 2 2 3 2 3 3 4 5 4 4 7 9 8 8 8 8 10 10 9 8 9 7 6 5 5 7 10 10 13 13 11 8 6 6 7
6 3 3 3 3 3 4 5 2 2 4 4 4 3 4 5 5 6 7 9 10 10 10 9 10 10 10 7 8 10 9 8 7 7 7 9 14 14 12 11 8 7 5 6
2 5 3 2 3 4 6 4 5 3 7 6 4 6 8 6 6 7 8 12 13 13 11 11 12 11 11 9 9 8 8 8 8 8 8 11 14 13 16 15 11 8 7 4
4 4 2 2 6 3 5 10 11 8 5 8 3 7 13 13 12 10 13 16 15 15 14 13 13 13 13 11 11 10 8 8 10 10 9 12 14 15 16 18 14 7 8 8
Wind_Direction
8 78 186 196 195 95 98 89 113 125 86 96 86 104 116 274 100 126 154 177 211 260 298 322 329 331 335 324 335 12 18 12 360 357 355 349 344 347 343 342 348 344 334 328
25 1 289 87 111 107 107 118 115 44 66 89 106 99 204 208 149 194 173 204 215 255 329 355 23 24 41 35 48 33 21 10 2 359 0 355 347 347 346 344 340 337 336 332
129 281 123 120 131 123 170 128 162 142 113 66 142 104 122 314 159 183 168 165 200 255 294 21 14 36 55 56 40 26 16 9 4 1 355 350 348 344 343 344 344 341 335 328
80 338 95 75 79 91 264 137 140 140 138 157 180 197 211 180 256 187 194 173 203 232 33 47 52 62 59 53 29 17 10 8 3 359 355 354 350 341 337 338 339 340 338 335
137 73 73 74 266 129 113 125 129 112 85 107 214 232 137 116 252 243 195 213 213 225 57 80 73 88 59 35 18 13 12 10 11 1 355 355 355 351 342 342 344 349 350 351
83 39 80 177 50 109 123 92 48 40 74 70 193 159 253 182 218 131 153 214 207 221 106 104 88 70 48 26 20 14 7 13 5 356 353 350 352 352 349 352 352 356 1 4
6 356 327 81 94 130 80 117 77 312 6 215 182 105 243 233 239 182 180 215 191 92 112 106 78 49 28 17 12 8 8 2 1 2 358 353 352 353 354 359 358 0 6 18
94 344 357 345 106 177 173 157 155 241 197 204 22 208 246 2 97 125 150 103 93 89 91 102 67 33 14 12 9 1 0 348 355 359 0 360 360 357 359 3 6 8 14 18
106 145 266 51 30 78 163 52 141 101 43 90 229 180 341 89 93 126 143 127 126 116 118 95 47 17 11 8 3 358 353 356 352 351 353 0 5 6 4 4 9 0 18 26
125 105 2 322 31 28 92 147 41 25 140 164 263 288 234 196 212 210 196 167 146 124 116 85 17 12 10 4 6 0 2 355 360 355 353 6 4 8 11 6 1 5 16 26
51 80 309 48 26 320 357 20 57 111 96 151 166 265 220 203 201 211 203 157 148 150 171 190 12 20 10 354 356 349 357 356 352 349 357 354 8 14 16 9 6 9 15 24
12 124 87 127 312 64 69 58 91 112 199 57 123 282 335 235 214 197 136 138 144 163 168 123 21 359 350 349 349 347 352 355 347 343 349 357 1 8 10 8 10 16 19 22
143 16 58 358 355 9 51 14 92 92 82 44 95 284 356 51 58 49 116 134 142 152 164 33 1 356 339 340 343 343 348 353 355 352 5 18 16 13 11 13 17 20 18 20
84 62 150 186 193 145 66 17 33 84 68 178 228 293 315 23 80 106 135 136 154 166 178 218 354 323 321 331 339 342 346 354 359 5 12 16 14 12 16 27 32 30 21 16
83 48 44 48 79 78 71 55 43 60 150 96 288 292 338 320 167 161 134 147 162 188 212 222 275 306 315 330 337 344 350 360 3 17 22 24 17 9 15 18 18 21 15 20
20 121 29 52 77 74 61 40 45 33 22 56 18 345 281 32 112 134 155 174 194 224 222 272 277 300 309 326 335 342 349 351 360 2 8 13 20 17 12 22 25 31 39 50
64 95 30 202 326 327 34 1 35 59 29 350 32 307 190 42 133 158 188 207 254 243 251 261 266 289 303 318 332 339 343 341 353 356 9 13 12 23 29 49 52 48 55 58
126 104 152 107 348 26 250 3 88 100 45 18 21 326 353 312 95 178 215 237 280 256 263 263 277 283 299 317 324 332 336 336 346 357 10 12 21 26 32 45 55 63 59 51
49 102 80 107 78 297 51 357 332 48 24 348 340 346 59 73 38 296 214 220 225 218 267 271 268 275 296 316 325 328 333 339 353 4 15 14 13 14 23 31 34 40 45 40
41 84 85 357 85 50 303 321 320 138 19 344 329 248 192 136 4 275 237 199 227 246 274 270 258 275 287 310 315 319 328 337 350 4 5 10 3 358 6 5 14 3 2 19
354 22 74 47 89 25 317 314 356 58 259 328 274 237 173 205 209 258 229 201 231 253 262 254 259 273 290 300 303 314 320 328 341 347 358 358 358 5 1 7 351 352 333 323
38 31 23 41 57 360 348 360 77 228 275 278 311 253 219 242 279 248 222 232 234 252 267 255 263 278 284 285 287 288 295 321 332 338 345 336 345 347 347 347 351 325 328 316
32 115 145 132 195 244 303 16 358 171 252 279 263 261 232 224 231 219 242 244 242 250 265 256 264 279 285 279 263 272 283 307 318 326 329 336 346 348 340 337 319 339 337 322
346 25 71 73 329 338 332 336 305 274 285 277 249 229 194 240 266 258 253 254 242 252 251 262 259 270 282 273 261 264 275 298 308 318 324 339 337 349 355 343 315 282 315 1
279 352 352 354 335 330 6 315 286 217 250 285 278 240 229 220 255 246 261 253 252 253 251 250 248 261 265 270 259 257 269 285 299 307 317 336 345 343 341 340 327 264 265 296
346 337 49 2 334 333 345 352 350 301 314 280 247 261 253 236 237 242 249 252 257 252 249 246 242 255 262 265 255 255 260 276 289 299 315 330 331 342 338 333 327 289 250 257